Regional Weather Roundup
Issued by NWS

Home | Current Version | Previous Version | Text Only | Print | Product List | Glossary On
Versions: 1 2 3 4 5 6 7 8 9 10 11 12 13 14 15 16 17 18 19 20 21 22 23 24 25 26 27 28 29 30 31 32 33 34 35 36 37 38 39 40 41 42 43 44 45 46 47 48 49 50
000
ASUS43 KLSX 260707
RWRMO

WEATHER SUMMARY FOR MISSOURI
NATIONAL WEATHER SERVICE SPRINGFIELD MO
100 AM CST MON JAN 26 2015

NOTE: "FAIR" INDICATES FEW OR NO CLOUDS BELOW 12,000 FEET WITH NO
       SIGNIFICANT WEATHER AND/OR OBSTRUCTIONS TO VISIBILITY.
       CURRENT SKY AND/OR WEATHER CONDITIONS ARE NOT AVAILABLE FOR
       CHILLICOTHE AND FARMINGTON.

MOZ001>031-035>038-043-044-053-054-260800-
...NORTHERN AND WESTERN MISSOURI...

CITY           SKY/WX    TMP DP  RH WIND       PRES   REMARKS
KANSAS CTY INT CLEAR     29  26  89 CALM      30.09F
KANSAS C DTWN  CLEAR     30  27  88 CALM      30.10F
LEE`S SUMMIT   CLEAR     29  26  89 CALM      30.09F
ST JOSEPH      CLOUDY    26  25  96 CALM      30.10S
CHILLICOTHE      N/A     32  28  85 CALM      30.09F
KIRKSVILLE     CLOUDY    30  27  88 CALM      30.06F

$$
MOZ066>068-077>081-088>096-101>105-260800-
...SOUTHWEST MISSOURI...

CITY           SKY/WX    TMP DP  RH WIND       PRES   REMARKS
SPRINGFIELD    CLOUDY    34  29  82 N10       30.08S WCI  26
JOPLIN         FAIR      34  28  79 NW3       30.12F

$$
MOZ032>034-039>042-045>050-055>058-069>072-260800-
...CENTRAL MISSOURI...

CITY           SKY/WX    TMP DP  RH WIND       PRES   REMARKS
COLUMBIA       CLOUDY    30  27  88 N7        30.07F WCI  23
JEFFERSON CITY CLOUDY    32  27  81 NW6       30.09F WCI  26
ROLLA          CLOUDY    30  26  85 NW14      30.03S WCI  19
SEDALIA        CLOUDY    33  29  85 NW5       30.10S WCI  29
WHITEMAN AFB   CLOUDY    32  28  83 N2        30.08F
OSAGE BEACH    CLOUDY    32  27  80 NW8       30.08S WCI  25

$$
MOZ051-052-059>065-260800-
...EAST CENTRAL MISSOURI...

CITY           SKY/WX    TMP DP  RH WIND       PRES   REMARKS
ST LOUIS INTL  PTCLDY    30  22  72 NW9       30.04R WCI  22
SPIRIT OF STL  CLOUDY    31  25  78 NW15      30.04S WCI  20
ST CHARLES     PTCLDY    28  22  78 N10       30.04S WCI  19

$$
MOZ072>076-082>087-097>100-106>115-260800-
...SOUTH CENTRAL AND SOUTHEAST MISSOURI...

CITY           SKY/WX    TMP DP  RH WIND       PRES   REMARKS
CAPE GIRARDEAU CLOUDY    34  30  85 N22G29    29.98R WCI  22
FARMINGTON     CLOUDY    30  27  86 MISG      30.02R
POPLAR BLUFF   CLOUDY    36  30  79 NW13      29.99R WCI  27
WEST PLAINS    CLOUDY    33  29  85 NW10      30.03S WCI  25

$$



USA.gov is the U.S. government's official web portal to all federal, state and local government web resources and services.